www.pogodaiklimat.ru

Погода и климат >> Архив погоды >> Россия >> Ханты-Мансийский АО >> Няксимволь


АРХИВ ПОГОДЫ в Няксимволе

Время (UTC), дата Ветер
(напр.,м/с)
 
Видим.   Явления Облачность Т
(С)
Тd
(С)
f
(%)
Тe
(С)
Тes
(С)
Комфортность P
(гПа)
Po
(гПа)
Тmin
(С)
Tmax
(С)
R
(мм)
R24
(мм)
S
(см)
00 18.03 ЮЗ 1 20 км 10/0
[As op]
-8.2 -11.2 79 -10 -10 1025.3 1018.6
03 18.03 Ю 1 50 км 10/0
[Ac As]
-7.0 -10.3 77 -9 -9 1025.7 1019.1 -8.9 60
06 18.03 Ю 2 50 км 10/10 1000 м
[Sc As trans]
-1.9 -8.1 63 -5 -5 1025.3 1018.8
09 18.03 Ю 3 50 км 10/10 1000 м
[Sc Ac trans]
+3.5 -6.3 49 0 0 1025.1 1018.7
12 18.03 ЮЗ 3 50 км 9/9 1000 м
[Sc]
+4.1 -3.7 57 +1 +1 1024.9 1018.5
15 18.03 З 1 20 км 10/10 1000 м
[Sc]
+2.3 -3.1 67 +1 +1 1025.8 1019.3 +5.1
18 18.03 Ю 2 20 км 10/10 1000 м
[Sc]
+1.4 -3.0 72 -2 -2 1026.0 1019.6
21 18.03 ЮЗ 2 20 км 10/10 1000 м
[Sc]
+1.3 -2.9 74 -2 -2 1026.2 1019.7
00 19.03 Ю 1 20 км 10/10 1000 м
[Sc]
+0.8 -3.1 75 -1 -1 1026.1 1019.6
03 19.03 Ю 2 50 км 10/10 1000 м
[Sc]
-0.8 -3.9 79 -4 -4 1026.1 1019.6 -1.7 58
06 19.03 Ю 2 50 км 10/0
[As op Ci fib]
+2.9 -3.5 63 0 +2 1025.1 1018.6
09 19.03 Ю 3 50 км 10/0
[As op Cs]
+6.4 -4.4 46 +4 +6 1023.6 1017.3
12 19.03 Ю 4 50 км 8/0
[As op Cs]
+7.2 -4.0 45 +4 +5 1022.0 1015.7
15 19.03 Ю 2 20 км 10/0
[As trans]
+3.3 -4.0 59 +1 +1 1021.1 1014.8 +7.7
18 19.03 Ю 1 20 км 8/0
[Ci fib]
-0.2 -3.6 78 -2 -2 1020.6 1014.2
21 19.03 Ю 3 20 км 8/0
[As op Ci fib]
+1.1 -3.2 73 -3 -3 1019.2 1012.8
00 20.03 Ю 2 20 км 8/0
[As op]
+1.4 -4.1 67 -2 -2 1017.1 1010.7
03 20.03 Ю 3 50 км 10/0
[As op]
+1.9 -5.1 60 -2 -2 1015.1 1008.7 -0.3 56
06 20.03 ЮЗ 3 50 км 10/0
[As op]
+4.7 -4.9 50 +2 +2 1013.3 1007.0
09 20.03 З 4 50 км 10/6 1000 м
[Sc Ac As]
+3.8 -3.1 61 -0 0 1013.4 1007.1
12 20.03 ЮЗ 3 50 км 10/10 1000 м
[Sc]
+3.7 -2.7 63 0 0 1013.2 1006.9
15 20.03 ЮЗ 2 20 км 10/10 600 м
[Sc]
+2.6 -1.8 73 -0 -0 1013.3 1007.0 +4.9
18 20.03 ЮЗ 2 20 км 10/4 1000 м
[Sc Ci sp]
+1.5 -1.7 79 -2 -2 1012.5 1006.1
21 20.03 ЮЗ 1 20 км 8/8 1000 м
[Sc]
-0.7 -2.5 88 -3 -3 1012.1 1005.7
00 21.03 Ю 2 20 км 10/10 1000 м
[Sc]
+0.3 -3.1 78 -3 -3 1011.6 1005.2
03 21.03 Ю 2 50 км 8/5 1000 м
[Sc Ci fib]
-0.9 -4.5 77 -5 -4 1011.0 1004.6 -2.1 54
06 21.03 ЮЗ 4 50 км 8/0
[Ac trans]
+3.5 -2.7 64 -1 +1 1010.1 1003.8
09 21.03 З 4 50 км 9/6 1000 м
[Sc Ac trans]
+5.5 -2.6 56 +2 +3 1010.0 1003.7
12 21.03 З 3 50 км 8/8 1000 м
[Sc Ac trans]
+5.3 -4.2 50 +3 +3 1009.9 1003.7
15 21.03 З 2 20 км 6/0
[Ac trans]
+1.7 -1.5 79 -2 -2 1011.4 1005.0 +6.5
18 21.03 ЮЗ 2 20 км 9/9 1000 м
[Sc]
-0.9 -2.7 88 -5 -5 1012.4 1006.0
21 21.03 Ю 2 20 км ясно -2.1 -4.6 83 -6 -6 1012.4 1005.9
03 22.03 штиль 0 50 км 10/4 1000 м
[Sc Ac As]
-2.2 -4.2 86 -3 -3 1013.4 1006.9 -2.6 52
06 22.03 Ю 2 50 км 10/10 1000 м
[Sc]
+0.8 -3.1 75 -2 -2 1013.3 1006.9
09 22.03 ЮЗ 2 50 км 10/4 1000 м
[Sc Ci fib]
+4.6 -2.9 58 +2 +5 1012.7 1006.4
12 22.03 В 1 50 км {ливн. осадки} 8/4 600 м
[Sc Ci fib]
+2.5 -0.1 83 +1 +2 1012.7 1006.3
15 22.03 ЮВ 1 20 км {ливн. осадки} 10/10 1000 м
[Sc]
+0.7 -0.1 94 -1 -1 1013.1 1006.8 +5.3 2
18 22.03 штиль 0 20 км {ливн. осадки} 8/5 1000 м
[Sc Ci fib]
-2.1 -2.3 99 -3 -3 1013.8 1007.4
21 22.03 Ю 1 20 км 9/6 1000 м
[Sc Ci fib]
-3.2 -3.3 99 -6 -6 1014.4 1007.9
00 23.03 ЮЗ 1 20 км 6/3 1000 м
[Sc Ci fib]
-5.5 -5.8 98 -8 -8 1014.9 1008.3
03 23.03 Ю 1 50 км 10/8 1000 м
[Sc Cs]
-4.3 -4.6 98 -7 -7 1015.6 1009.0 -6.3 52
06 23.03 ЮЗ 3 50 км 3/3 1000 м
[Sc Ci fib]
+2.8 -1.9 71 -1 +2 1016.4 1010.0
09 23.03 СЗ 3 50 км 8/8 1000 м
[Sc]
+4.0 -5.5 50 +1 +2 1016.7 1010.4
12 23.03 З 1 50 км 9/9 1000 м
[Sc]
+3.3 -4.4 57 +2 +3 1017.5 1011.1
15 23.03 З 2 20 км 9/9 1000 м
[Sc]
+1.8 -5.7 57 -1 -1 1018.7 1012.3 +4.7
18 23.03 Ю 1 20 км 3/3 1000 м
[Sc]
-1.9 -5.6 76 -4 -4 1018.8 1012.3
21 23.03 Ю 1 20 км 8/8 1000 м
[Sc]
-4.3 -6.7 83 -7 -7 1018.4 1011.8
00 24.03 Ю 2 20 км 10/10 1000 м
[Sc]
-2.8 -6.0 79 -7 -7 1017.4 1010.9
03 24.03 Ю 2 50 км 10/10 1000 м
[Sc]
-1.2 -5.3 74 -5 -5 1016.6 1010.1 -5.4 51
06 24.03 Ю 3 50 км 10/0
[As op]
+2.1 -4.3 63 -2 -1 1015.6 1009.2
09 24.03 Ю 3 50 км 9/0
[As op]
+5.3 -5.9 44 +3 +4 1013.8 1007.5
12 24.03 ЮЗ 4
{10}
50 км 8/0
[Ac As]
+6.1 -5.8 42 +3 +4 1012.6 1006.3
15 24.03 ЮЗ 2 20 км 6/6 1000 м
[Sc]
+3.6 -5.9 50 +1 +1 1012.1 1005.8 +6.2
18 24.03 Ю 2 20 км ясно -1.1 -6.5 67 -5 -5 1011.9 1005.5

 

Местоположение метеостанции Няксимволь (Ханты-Мансийский АО, Россия): широта 62.43 долгота 60.87 высота над уровнем моря 51 м.

В архиве по умолчанию представлена погода в Няксимволе за последнюю неделю. Архивные данные за месяц целиком и за предыдущие месяцы, начиная с января 2011 года, Вы можете получить, выбрав интересующий диапазон дат из раскрывающегося списка и нажав кнопку "Ввод!".


*Определитесь, кто Вы:
робот инопланетянин человек

Внимание! Время в таблицах - всемирное. Для получения местного времени необходимо прибавить поправку, которая равна 5 ч.

Смотрите также архив погоды в соседних городах и на ближайших метеорологических станциях:

Погода в Приполярном (Ханты-Мансийский АО, Россия) (101 км)
Погода в Агирише (Ханты-Мансийский АО, Россия) (125 км)
Погода в Бурмантово (Свердловская область, Россия) (130 км)
Погода в Сосьве (Ханты-Мансийский АО, Россия) (149 км)
Погода в Атымье (Свердловская область, Россия) (171 км)
Погода в Югорске (Ханты-Мансийский АО, Россия) (182 км)
Погода в Ивделе (Свердловская область, Россия) (196 км)
Погода в Игриме (Ханты-Мансийский АО, Россия) (201 км)
Погода в Саранпауле (Ханты-Мансийский АО, Россия) (206 км)
Погода в Вонъегане (Ханты-Мансийский АО, Россия) (216 км)

Пояснения к столбцам:

Ветер - указаны скорость ветра в м/с - средняя за 10 мин, порывы в срок и между сроками (в фигурных скобках) и направление, откуда дует ветер: С - северный, СВ - северо-восточный, В - восточный, ЮВ - юго-восточный, Ю - южный, ЮЗ - юго-западный, З - западный, СЗ - северо-западный.
Видимость - горизонтальная дальность видимости в метрах или километрах. При видимости от 1 до 10 км при отсутствии осадков обычно наблюдается дымка, при ухудшении видимости до 1 км и менее - туман. В сухую погоду видимость может ухудшаться дымом, пылью или мглою.
Явления - указаны атмосферные явления, наблюдавшиеся в срок или в последний час перед сроком; фигурными скобками обозначены явления, наблюдавшиеся между сроками (за 1-3 часа до срока); квадратными скобками обозначены град или гололедные отложения с указанием их диаметра в мм.
Облачность - указаны через наклонную черту общая и нижняя облачность в баллах и высота нижней границы облаков в метрах; квадратными скобками обозначены формы облаков: Ci - перистые, Cs - перисто-слоистые, Cc - перисто-кучевые, Ac - высококучевые, As - высокослоистые, Sc - слоисто-кучевые, Ns - слоисто-дождевые, Cu - кучевые, Cb - кучево-дождевые. Подробнее классификацию облаков см. в Атласе облаков (PDF).
T - Температура воздуха - температура, измеренная на высоте 2 м над землей.
Td - Температура точки росы - температура, при понижении до которой содержащийся в воздухе водяной пар достигнет насыщения.
f - Относительная влажность воздуха - влажноcть воздуха, измеренная на высоте 2 м над землей.
Te - Эффективная температура - температура, которую ощущает одетый по сезону человек в тени. Характеристика душности погоды. При расчете учитывается влияние влажности воздуха и скорости ветра на теплоощущения человека.
Tes - Эффективная температура на солнце - температура, которую ощущает человек, с поправкой на солнечный нагрев. Характеристика знойности погоды. Зависит от высоты солнца над горизонтом, облачности и скорости ветра. Ночью, в пасмурную погоду, а также при ветре 12 м/с и более поправка равна нулю.
P - Атмосферное давление - приведенное к уровню моря атмосферное давление.
Po - Атмосферное давление - измеренное на уровне метеостанции атмосферное давление.
Tmin - Минимальная температура - минимум температуры воздуха на высоте 2 м над землей.
Tmax - Максимальная температура - максимум температуры воздуха на высоте 2 м над землей.
R - Количество осадков - Количество выпавших осадков за период времени, мм. При наведении курсора мыши на число - период времени, за который выпало указанное количество осадков.
R24 - Количество осадков - Количество выпавших осадков за 24 часа, мм.
S - Снежный покров - Высота снежного покрова, см. При наведении курсора мыши на число - состояние снежного покрова и степень покрытия местности в баллах.